This is the latest recevied weather packets stored in our database for station/object KL7AF. If no packets are shown the sender has not sent any weather packets the latest 10 day(s).
| Time | Temp. | Humidity | Pressure | Rain* | Wind** | Luminosity | Snow |
|---|---|---|---|---|---|---|---|
| 1788556026 | 35.56° C | 57% | 1074.4 hPa | 0 mm | - | 72 W/m² | - |
| 1788555726 | 35.56° C | 59% | 1074.5 hPa | 0 mm | - | 56 W/m² | - |
| 1788555426 | 36.11° C | 57% | 1074.3 hPa | 0 mm | - | 57 W/m² | - |
| 1788555125 | 36.11° C | 57% | 1074 hPa | 0 mm | - | 68 W/m² | - |
| 1788554843 | 36.11° C | 58% | 1074.1 hPa | 0 mm | - | 80 W/m² | - |
| 1788554524 | 36.11° C | 56% | 1074.3 hPa | 0 mm | - | 81 W/m² | - |
| 1788554223 | 36.11° C | 55% | 1074.3 hPa | 0 mm | - | 109 W/m² | - |
| 1788553923 | 36.11° C | 57% | 1074.4 hPa | 0 mm | - | 232 W/m² | - |
| 1788553622 | 36.11° C | 58% | 1074.5 hPa | 0 mm | - | 77 W/m² | - |
| 1788553322 | 36.67° C | 56% | 1074.5 hPa | 0 mm | - | 58 W/m² | - |
| 1788553021 | 36.67° C | 54% | 1074.5 hPa | 0 mm | - | 63 W/m² | - |
| 1788552721 | 36.67° C | 52% | 1074.6 hPa | 0 mm | - | 65 W/m² | - |
| 1788552420 | 36.67° C | 54% | 1074.6 hPa | 0 mm | - | 122 W/m² | - |
| 1788552119 | 36.11° C | 56% | 1074.8 hPa | 0 mm | - | 94 W/m² | - |
| 1788551819 | 36.11° C | 54% | 1074.9 hPa | 0 mm | - | 114 W/m² | - |
| 1788551518 | 35.56° C | 54% | 1075.1 hPa | 0 mm | - | 130 W/m² | - |
| 1788551217 | 35.56° C | 58% | 1075.3 hPa | 0 mm | - | 636 W/m² | - |
| 1788550916 | 36.11° C | 59% | 1075.2 hPa | 0 mm | - | 206 W/m² | - |
| 1788550616 | 36.11° C | 58% | 1075.2 hPa | 0 mm | - | 117 W/m² | - |
| 1788550316 | 36.67° C | 58% | 1075.2 hPa | 0 mm | - | 86 W/m² | - |
| 1788550015 | 36.67° C | 54% | 1075.1 hPa | 0 mm | - | 86 W/m² | - |
| 1788549714 | 37.22° C | 53% | 1075.1 hPa | 0 mm | - | 72 W/m² | - |
| 1788549413 | 37.22° C | 52% | 1017 hPa | 0 mm | - | 69 W/m² | - |
| 1788549113 | 37.22° C | 53% | 1075.1 hPa | 0 mm | - | 243 W/m² | - |
| 1788548813 | 37.22° C | 52% | 1075.3 hPa | 0 mm | - | 797 W/m² | - |
* Rain latest hour (hover to see other rain measurements)
** Current wind speed in m/s (hover to see current wind gust speed)